Weather History for Dayton, OH

Change the Weather History Date:

Wednesday, April 10, 2013

  Actual Average Record
Temperature  
Mean Temperature 71 °F 50 °F  
Max Temperature 82 °F 60 °F 84 °F (2011)
Min Temperature 59 °F 40 °F 18 °F (1900)
Degree Days  
Heating Degree Days 0 16  
Month to date heating degree days 151 172  
Since 1 July heating degree days 5113 5211  
Cooling Degree Days 6 0  
Month to date cooling degree days 9 0  
Year to date cooling degree days 9 0  
Growing Degree Days 21 (Base 50)    
Moisture  
Dew Point 59 °F    
Average Humidity 72    
Maximum Humidity 93    
Minimum Humidity 51    
Precipitation  
Precipitation 0.07 in 0.13 in 1.45 in (1994)
Month to date precipitation 0.07 1.29  
Year to date precipitation 7.62 9.58  
Snow  
Snow 0.00 in 0.00 in 0.90 in (1973)
Month to date snowfall 0.0 0.4  
Since 1 July snowfall 35.9 23.1  
Snow Depth 0.00 in    
Sea Level Pressure  
Sea Level Pressure 29.88 in    
Wind  
Wind Speed 14 mph (SSW)    
Max Wind Speed 26 mph    
Max Gust Speed 35 mph    
Visibility 10 miles    
Events Rain , Thunderstorm    
T = Trace of Precipitation, MM = Missing Value Source: NWS Daily Summary

Daily Weather History Graph

Daily Weather History Graph

Search for Another Location

Airport:

Trip Planner

Search our weather history database for the weather conditions in past years. The results will help you decide how hot, cold, wet, or windy it might be!

Date:

Astronomy

Apr. 10, 2013 Rise Set
Actual Time 7:06 AM EDT 8:10 PM EDT
Civil Twilight 6:38 AM EDT 8:38 PM EDT
Nautical Twilight 6:05 AM EDT 9:11 PM EDT
Astronomical Twilight 5:31 AM EDT 9:45 PM EDT
Moon 7:01 AM EDT (4/10) 8:45 PM EDT (4/10)
Length of Visible Light 13h 59m
Length of Day
13h 04m
Waxing Crescent, 0% of the Moon is Illuminated
Apr 10
Waxing Crescent
Apr 18
First Quarter
Apr 25
Full
May 2
Last Quarter
May 9
New

Hourly Weather History & Observations

Time (EDT) Temp. Heat Index Dew Point Humidity Pressure Visibility Wind Dir Wind Speed Gust Speed Precip Events Conditions
12:56 AM 70.0 °F - 57.9 °F 65% 29.93 in 10.0 mi SSW 11.5 mph - N/A   Mostly Cloudy
1:56 AM 69.1 °F - 57.9 °F 68% 29.94 in 10.0 mi SSW 11.5 mph - N/A   Overcast
2:56 AM 68.0 °F - 57.9 °F 70% 29.93 in 10.0 mi SSW 11.5 mph - N/A   Scattered Clouds
3:56 AM 66.9 °F - 57.9 °F 73% 29.91 in 10.0 mi SSW 9.2 mph - N/A   Mostly Cloudy
4:56 AM 66.9 °F - 57.9 °F 73% 29.91 in 10.0 mi SSW 9.2 mph - N/A   Overcast
5:56 AM 66.9 °F - 57.9 °F 73% 29.91 in 10.0 mi South 10.4 mph - N/A   Overcast
6:56 AM 66.9 °F - 57.9 °F 73% 29.91 in 10.0 mi South 11.5 mph - N/A   Overcast
7:56 AM 66.9 °F - 57.9 °F 73% 29.91 in 10.0 mi South 15.0 mph - N/A   Mostly Cloudy
8:56 AM 68.0 °F - 57.9 °F 70% 29.90 in 10.0 mi SSW 13.8 mph 21.9 mph N/A   Overcast
9:56 AM 70.0 °F - 59.0 °F 68% 29.90 in 10.0 mi SSW 20.7 mph 27.6 mph N/A   Overcast
10:56 AM 71.6 °F - 60.8 °F 69% 29.93 in 10.0 mi SSW 20.7 mph 28.8 mph N/A   Overcast
11:16 AM 69.8 °F - 62.6 °F 78% 29.93 in 7.0 mi SW 16.1 mph 25.3 mph 0.00 in Rain , Thunderstorm Light Thunderstorms and Rain
11:56 AM 66.9 °F - 63.0 °F 87% 29.92 in 5.0 mi SSW 13.8 mph 20.7 mph 0.01 in Rain , Thunderstorm Thunderstorms and Rain
12:02 PM 66.2 °F - 62.6 °F 88% 29.93 in 6.0 mi SW 13.8 mph - 0.02 in Rain Light Rain
12:56 PM 72.0 °F - 64.0 °F 76% 29.89 in 10.0 mi SSW 12.7 mph - 0.02 in   Overcast
1:56 PM 78.1 °F - 64.0 °F 62% 29.86 in 10.0 mi SW 21.9 mph 27.6 mph N/A   Overcast
2:56 PM 80.1 °F 81.2 °F 62.1 °F 54% 29.83 in 10.0 mi SW 23.0 mph 29.9 mph N/A   Mostly Cloudy
3:56 PM 81.0 °F 81.9 °F 62.1 °F 52% 29.82 in 10.0 mi SSW 25.3 mph 31.1 mph N/A   Overcast
4:56 PM 80.1 °F 80.9 °F 60.1 °F 50% 29.80 in 10.0 mi SW 20.7 mph 26.5 mph N/A   Overcast
5:56 PM 80.1 °F 80.9 °F 60.1 °F 50% 29.79 in 10.0 mi SSW 15.0 mph 27.6 mph N/A   Overcast
6:56 PM 77.0 °F - 60.1 °F 56% 29.81 in 10.0 mi West 8.1 mph - N/A   Overcast
7:17 PM 64.4 °F - 55.4 °F 73% 29.87 in 10.0 mi North 16.1 mph 26.5 mph N/A   Overcast
7:56 PM 63.0 °F - 57.9 °F 84% 29.85 in 10.0 mi NNE 13.8 mph - N/A   Overcast
8:56 PM 60.8 °F - 57.2 °F 88% 29.83 in 10.0 mi ENE 9.2 mph - N/A   Mostly Cloudy
9:56 PM 62.1 °F - 57.9 °F 86% 29.83 in 10.0 mi ENE 8.1 mph - 0.00 in   Overcast
10:56 PM 61.0 °F - 57.9 °F 90% 29.88 in 10.0 mi NNW 10.4 mph - N/A   Overcast
11:08 PM 60.8 °F - 57.2 °F 88% 29.88 in 6.0 mi North 8.1 mph - 0.04 in Rain Light Rain
11:25 PM 60.8 °F - 57.2 °F 88% 29.86 in 10.0 mi ENE 8.1 mph - 0.04 in   Overcast
11:56 PM 59.0 °F - 57.9 °F 96% 29.86 in 8.0 mi East 8.1 mph - 0.04 in   Overcast